Regional Weather Roundup
Issued by NWS Austin/San Antonio, TX

Home | Current Version | Previous Version | Text Only | Print | Product List | Glossary On
Versions: 1 2 3 4 5 6 7 8 9 10 11 12 13 14 15 16 17 18 19 20 21 22 23 24 25 26 27 28 29 30 31 32 33 34 35 36 37 38 39 40 41 42 43 44 45 46 47 48 49 50
000
ASUS44 KEWX 201210
RWREWX
SOUTH TEXAS REGIONAL WEATHER ROUNDUP
NATIONAL WEATHER SERVICE AUSTIN/SAN ANTONIO TX
700 AM CDT FRI OCT 20 2017

NOTE: "FAIR" INDICATED FEW OR NO CLOUDS BELOW 12,000 FEET WITH NO
SIGNIFICANT WEATHER AND/OR OBSTRUCTIONS TO VISIBILITY.

* - THESE STATIONS ARE NOT NWS OR FAA STATIONS...AND ARE NOT SUBJECT
    TO NWS AND FAA QUALITY CONTROL.

TXZ171-172-183>190-201300-
TEXAS HILL COUNTRY AND EDWARDS PLATEAU

CITY           SKY/WX    TMP DP  RH WIND       PRES   REMARKS
JUNCTION       CLOUDY    64  61  90 CALM      30.06R
6HR MIN TEMP:  61; 6HR MAX TEMP:  66;

*LLANO         FAIR      59  57  94 CALM      30.09R
BURNET         MOCLDY    63  61  93 CALM      30.07S
6HR MIN TEMP:  62; 6HR MAX TEMP:  69;

*HORSESHOE BAY FAIR      61  61 100 CALM      30.05S
6HR MIN TEMP:  60; 6HR MAX TEMP:  67;

*KERRVILLE     FAIR      60  59  96 CALM      30.07R
6HR MIN TEMP:  60; 6HR MAX TEMP:  65;

*FREDERICKSBRG CLOUDY    63  60  93 CALM      30.06S
6HR MIN TEMP:  62; 6HR MAX TEMP:  66;

*ROCKSPRINGS   NOT AVBL
*BOERNE STAGE  CLOUDY    63  61  94 CALM      30.06S
*CASTROVILLE   CLOUDY    69  66  89 E6        30.04S
HONDO          CLOUDY    69  64  84 E5        30.03S
6HR MIN TEMP:  66; 6HR MAX TEMP:  70;

*UVALDE        CLOUDY    67  64  89 CALM      30.05R
6HR MIN TEMP:  66; 6HR MAX TEMP:  67;

DEL RIO        CLOUDY    67  67 100 SE5       30.02R FOG
6HR MIN TEMP:  67; 6HR MAX TEMP:  71;

LAUGHLIN AFB   DRIZZLE   67  64  90 S3        30.02S FOG
6HR MIN TEMP:  67; 6HR MAX TEMP:  70; 6HR PCP: TRACE;

CARRIZO SPRGS  CLOUDY    68  66  94 SE3       30.01R
*EAGLE PASS    NOT AVBL
$$

TXZ173-191>194-202-209-217>225-228-201300-
CENTRAL AND SOUTH CENTRAL TEXAS

CITY           SKY/WX    TMP DP  RH WIND       PRES   REMARKS
GEORGETOWN     FAIR      63  60  90 N3        30.07S
6HR MIN TEMP:  62; 6HR MAX TEMP:  67;

AUSTIN/BERGSTM CLOUDY    67  63  87 NE5       30.03S
6HR MIN TEMP:  61; 6HR MAX TEMP:  68;

AUSTIN/MABRY   CLOUDY    69  62  78 CALM      30.05S
6HR MIN TEMP:  66; 6HR MAX TEMP:  69;

*AUSTIN/EXEC   MOCLDY    64  61  88 CALM      30.05R
*LAGO VISTA    MOCLDY    64  62  94 CALM      30.06S
6HR MIN TEMP:  63; 6HR MAX TEMP:  69;

SAN MARCOS     CLOUDY    68  63  84 N6        30.04R
6HR MIN TEMP:  64; 6HR MAX TEMP:  68;

NEW BRAUNFELS  CLOUDY    68  65  90 CALM      30.02S
6HR MIN TEMP:  63; 6HR MAX TEMP:  70;

RANDOLPH AFB   CLOUDY    69  65  86 CALM      30.03R
6HR MIN TEMP:  66; 6HR MAX TEMP:  69;

PT SAN ANTONIO CLOUDY    70  66  86 E7        30.01R
6HR MIN TEMP:  67; 6HR MAX TEMP:  71;

SAN ANTONIO    CLOUDY    69  64  84 NE5       30.04R
6HR MIN TEMP:  66; 6HR MAX TEMP:  69;

STINSON FIELD  CLOUDY    71  66  84 E5        30.00S
6HR MIN TEMP:  69; 6HR MAX TEMP:  72;

*LA GRANGE     FAIR      68  67  95 CALM      30.01S
6HR MIN TEMP:  66; 6HR MAX TEMP:  70;

*GIDDINGS      FAIR      65  62  91 NE3       30.04S
6HR MIN TEMP:  63; 6HR MAX TEMP:  68;

*GONZALES      CLOUDY    69  69  99 CALM      30.02R
6HR MIN TEMP:  66; 6HR MAX TEMP:  71;

$$

TXZ163>164-176>182-195>201-210>213-226-227-235-201300-
SOUTHEAST TEXAS

CITY           SKY/WX    TMP DP  RH WIND       PRES   REMARKS
COLLEGE STN    CLOUDY    68  65  90 VRB5      30.06R
6HR MIN TEMP:  67; 6HR MAX TEMP:  71; 6HR PCP:  0.01;

*BRYAN         CLOUDY    65  65 100 CALM      30.08R
6HR MIN TEMP:  63; 6HR MAX TEMP:  67;

*CALDWELL      CLOUDY    66  64  93 NE3       30.06R
6HR MIN TEMP:  64; 6HR MAX TEMP:  68;

*CROCKETT        N/A     66  63  88 SE7       30.10R
*BRENHAM       CLOUDY    69  67  96 CALM      30.06R
6HR MIN TEMP:  67; 6HR MAX TEMP:  73; 6HR PCP:  0.02;

HUNTSVILLE     FAIR      71  66  84 VRB6      30.05R
6HR MIN TEMP:  68; 6HR MAX TEMP:  72; 6HR PCP:  0.01;

CONROE         LGT RAIN  68  68 100 SE5       30.06S
6HR MIN TEMP:  65; 6HR MAX TEMP:  68; 6HR PCP:  0.02;

HOUSTON BUSH   MOCLDY    71  70  96 VRB3      30.04F THUNDER
6HR MIN TEMP:  67; 6HR MAX TEMP:  71; 6HR PCP:  0.01;

HOUSTON HOBBY  MOCLDY    72  68  87 NE3       30.04S THUNDER
6HR MIN TEMP:  72; 6HR MAX TEMP:  74; 6HR PCP:  0.74;

*HOUSTON SW AP MOCLDY    70  69  96 E5        30.03F
6HR MIN TEMP:  69; 6HR MAX TEMP:  70; 6HR PCP:  0.17;

PEARLAND       MOCLDY    73  69  87 CALM      30.05S
6HR MIN TEMP:  72; 6HR MAX TEMP:  75; 6HR PCP:  1.82;

HOUSTON HOOKS  MOCLDY    70  68  93 VRB3      30.05F FOG
6HR MIN TEMP:  67; 6HR MAX TEMP:  72; 6HR PCP:  0.32;

ELLINGTON FLD  MOCLDY    73  70  88 NE3       30.05R
SUGAR LAND     FAIR      73  70  90 E9        30.03R
6HR MIN TEMP:  70; 6HR MAX TEMP:  73; 6HR PCP:  0.26;

*HOUSTON EXEC  MOCLDY    70  68  94 E6        30.05S
*CLEVELAND MUN LGT RAIN  68  65  92 CALM      30.07R
6HR MIN TEMP:  65; 6HR MAX TEMP:  68;

*WHARTON       FAIR      70  68  94 CALM      30.04S
6HR MIN TEMP:  66; 6HR MAX TEMP:  70; 6HR PCP:  0.05;

*COLUMBUS      CLOUDY    70  68  95 W7        30.04S
6HR MIN TEMP:  67; 6HR MAX TEMP:  70; 6HR PCP:  0.07;

*EAGLE LAKE    PTSUNNY   71  71 100 E5        30.04R
6HR MIN TEMP:  69; 6HR MAX TEMP:  71; 6HR PCP:  0.12;

$$

TXZ214>216-236>238-201300-
THE UPPER TEXAS COAST

CITY           SKY/WX    TMP DP  RH WIND       PRES   REMARKS
*ORANGE        FAIR      72  70  94 E10       30.09F
6HR MIN TEMP:  70; 6HR MAX TEMP:  72;

PORT ARTHUR    FAIR      72  68  87 E14       30.04F
6HR MIN TEMP:  71; 6HR MAX TEMP:  73; 6HR PCP: TRACE;

GALVESTON      MOCLDY    78  75  90 E7        30.04R
6HR MIN TEMP:  75; 6HR MAX TEMP:  81; 6HR PCP:  0.51;

ANGLETON       FAIR      73  71  93 CALM      30.02F
6HR MIN TEMP:  71; 6HR MAX TEMP:  74; 6HR PCP:  0.51;

*BAY CITY      MOCLDY    72  72 100 NE3       30.03R
PALACIOS       MOCLDY    69  69 100 NE6       30.01R
6HR MIN TEMP:  67; 6HR MAX TEMP:  70;

$$

TXZ229>234-239>247-201300-
TEXAS COASTAL BEND AND RIO GRANDE PLAINS

CITY           SKY/WX    TMP DP  RH WIND       PRES   REMARKS
VICTORIA       MOCLDY    69  68  96 NE5       30.02R FOG
6HR MIN TEMP:  69; 6HR MAX TEMP:  71; 6HR PCP:  0.01;

*BEEVILLE      FOG      N/A N/A N/A NE5       30.00S VSB 1/2
ROCKPORT       FAIR      70  70 100 CALM      30.00R FOG
6HR MIN TEMP:  68; 6HR MAX TEMP:  73;

*PORT ARANSAS  NOT AVBL
*PORT LAVACA   FAIR      69  67  94 NE5       30.01R FOG
6HR MIN TEMP:  69; 6HR MAX TEMP:  71; 6HR PCP:  0.03;

*INGLESIDE     NOT AVBL
CORPUS CHRISTI MOCLDY    69  69 100 CALM      29.99R
6HR MIN TEMP:  69; 6HR MAX TEMP:  75; 6HR PCP:  0.14;

CORPUS NAS     MOCLDY    71  70  96 CALM      29.99R FOG
6HR MIN TEMP:  71; 6HR MAX TEMP:  78; 6HR PCP:  0.12;

*ROBSTOWN      FAIR      70  69  97 CALM      30.00R
6HR MIN TEMP:  70; 6HR MAX TEMP:  75;

ALICE          CLOUDY    71  69  93 CALM      29.99R
6HR MIN TEMP:  70; 6HR MAX TEMP:  73; 6HR PCP: TRACE;

KINGSVILLE NAS FOG       70  70 100 CALM      29.99S VSB 1/4
6HR MIN TEMP:  69; 6HR MAX TEMP:  75;

COTULLA        CLOUDY    71  66  84 E3        30.00S
6HR MIN TEMP:  69; 6HR MAX TEMP:  71;

*FAITH RANCH   MOCLDY    66  66 100 CALM      30.01R
LAREDO         MOCLDY    69  67  93 E6        30.00R
6HR MIN TEMP:  69; 6HR MAX TEMP:  72;

$$

TXZ248>255-201300-
DEEP SOUTH TEXAS

CITY           SKY/WX    TMP DP  RH WIND       PRES   REMARKS
BROWNSVILLE    FAIR      70  69  97 CALM      29.97S
6HR MIN TEMP:  69; 6HR MAX TEMP:  72;

PORT ISABEL    FOG       68  67  96 CALM      29.97R VSB 3/4
6HR MIN TEMP:  66; 6HR MAX TEMP:  71;

*SOUTH PA



USA.gov is the U.S. government's official web portal to all federal, state and local government web resources and services.